Starlink 4349

operational
NORAD ID: 53044 Int'l Des: 2022-077 Owner: SPXS Country: US Constellation: starlink
LEOCIRCULARRETROGRADESSO

About Starlink 4349

Description loading...

Live Position

Loading 3D Globe...

Upcoming Passes

Altitude History

Altitude vs Time

uPlot chart will show altitude changes over time

Two-Line Element Set

1 53044U 22077B 25304.06689793 .00000164 00000-0 17304-4 0 9996
2 53044 97.6021 123.3028 0000319 149.2389 210.8854 15.01262063181476
Epoch: Oct 31, 2025 • Age: 11 hours

Current Status

Altitude 591.4 km
Velocity 7.56 km/s
Sub-Earth Point -81.43°S, 16.17°E
Launch Date Jul 11, 2022
Age 3.3 years
Type internet

Technical Details

Classification Payload
Mass 297.00 kg
Dry Mass 275.00 kg
Total Mass 297.00 kg
Length 0.20 m
Diameter 2.80 m
Span 9.00 m
Shape Box + pan
Manufacturer SPXS
Bus Type Starlink
Phase Status In Orbit
Owner/State SPXS/US

Large Constellations

Loading constellations...